CYVO

Val-d'Or Airport

ICAO Code CYVO
IATA Code YVO
Name Val-d'Or Airport
Location Val-d'Or, Quebec, CA
Elevation 1105 Feet / 336.8 Meters
Latitude 48.05333333
Longitude -77.78277778
METAR CYVO 020000Z 01012KT 15SM FEW055 SCT230 18/07 A2994 RMK SC2CI2 SLP147 DENSITY ALT 1700FT
Extra information Display Charts and CFS
Display NOTAMS
Runway Length Width Surface Elevation
18 10000 ft 150 ft ASP 1101 ft
36 10000 ft 150 ft ASP 1099 ft

Mandatory Routes

Val-d'Or Airport

Direction Destination Level Remark Type Route
DEP TO CYQB H&L RNAV OLAVO OLAVO ARR
DEP TO CYUL H&L RNAV TAGET IKMOL LAFLEUR ARR